This demonstration page uses our WeatherBlox Daily Observations layout. Learn more.

Left ArrowRight Arrow

41.12389, -100.76542

Hourly Observations for March 10, 2019

Temp ( °F °C ) Dew Point ( °F °C ) Humidity (%) Winds ( mph kmh ) Pressure ( in mb ) Visibility ( mi km ) Precip ( " mm )
12:53 am 00:53 Clear 18 -7.8 13 -10.6 81 81 NW 7 11 30.11 1020 10 16 0.00 0.00
1:53 am 01:53 Clear 17 -8.3 12 -11.1 80 80 NNW 12 19 30.12 1020 10 16 0.00 0.00
3:53 am 03:53 Clear 21 -6.1 15 -9.4 78 78 W 9 15 30.16 1021 10 16 0.00 0.00
4:53 am 04:53 Clear 14 -10 11 -11.7 88 88 NNW 9 15 30.16 1021 10 16 0.00 0.00
5:53 am 05:53 Clear 15 -9.4 12 -11.1 88 88 NNW 5 7 30.18 1022 10 16 0.00 0.00
6:53 am 06:53 Clear 12 -11.1 10 -12.2 92 92 NNW 5 7 30.22 1023 10 16 0.00 0.00
7:53 am 07:53 Clear 13 -10.6 10 -12.2 88 88 NNW 5 7 30.24 1024 10 16 0.00 0.00
8:53 am 08:53 Sunny 11 -11.7 8 -13.3 88 88 NNW 5 7 30.28 1025 10 16 0.00 0.00
9:53 am 09:53 Sunny 18 -7.8 13 -10.6 81 81 Calm 30.27 1025 10 16 0.00 0.00
10:53 am 10:53 Sunny 26 -3.3 17 -8.3 69 69 Calm 30.28 1026 10 16 0.00 0.00
11:53 am 11:53 Cloudy 32 0 21 -6.1 64 64 Calm 30.28 1026 10 16 0.00 0.00
12:53 pm 12:53 Cloudy 38 3.3 22 -5.6 52 52 Calm 30.25 1025 10 16 0.00 0.00
1:53 pm 13:53 Partly Cloudy 37 2.8 23 -5 57 57 SSW 12 19 30.25 1025 10 16 0.00 0.00
2:53 pm 14:53 Sunny 40 4.4 24 -4.4 53 53 SW 8 13 30.23 1024 10 16 0.00 0.00
3:53 pm 15:53 Sunny 43 6.1 23 -5 45 45 VRB 3 6 30.21 1023 10 16 0.00 0.00
4:53 pm 16:53 Sunny 44 6.7 25 -3.9 47 47 SSW 5 7 30.22 1023 10 16 0.00 0.00
5:53 pm 17:53 Sunny 43 6.1 26 -3.3 51 51 SSE 8 13 30.20 1023 10 16 0.00 0.00
6:53 pm 18:53 Sunny 41 5 28 -2.2 60 60 SSE 13 20 30.21 1023 10 16 0.00 0.00
7:53 pm 19:53 Clear 34 1.1 28 -2.2 79 79 SE 10 17 30.23 1024 10 16 0.00 0.00
8:53 pm 20:53 Clear 30 -1.1 26 -3.3 85 85 ESE 8 13 30.28 1025 10 16 0.00 0.00
9:53 pm 21:53 Clear 28 -2.2 25 -3.9 88 88 SE 10 17 30.27 1025 10 16 0.00 0.00
10:53 pm 22:53 Clear 31 -0.6 24 -4.4 76 76 SSE 10 17 30.26 1025 10 16 0.00 0.00
11:53 pm 23:53 Clear 30 -1.1 23 -5 75 75 SSE 9 15 30.28 1025 10 16 0.00 0.00

Powered by AerisWeather